Regional Weather Roundup
Issued by NWS Albany, NY

Home | Current Version | Previous Version | Text Only | Print | Product List | Glossary On
Versions: 1 2 3 4 5 6 7 8 9 10 11 12 13 14 15 16 17 18 19 20 21 22 23 24 25 26 27 28 29 30 31 32 33 34 35 36 37 38 39 40 41 42 43 44 45 46 47 48 49 50
000
ASUS41 KALY 191210
RWRALY

NEW YORK STATE HOURLY WEATHER ROUNDUP
NATIONAL WEATHER SERVICE ALBANY NY
800 AM EDT FRI SEP 19 2014

NOTE: "FAIR" INDICATES FEW OR NO CLOUDS BELOW 12,000 FEET WITH NO
SIGNIFICANT WEATHER AND/OR NO OBSTRUCTIONS TO VISIBILITY.

NYZ032-033-038>043-046>054-057>066-NYZ062>081-191300-
EAST


CITY           SKY/WX    TMP DP  RH WIND       PRES   REMARKS
ALBANY         MOSUNNY   43  34  70 N10       30.38R
GLENS FALLS    SUNNY     38  34  85 CALM      30.38R
POUGHKEEPSIE   PTSUNNY   48  39  71 N7        30.33R
NEWBURGH       PTSUNNY   48  41  76 E9        30.33R
MONTGOMERY     CLOUDY    48  38  68 NE12      30.32R
WHITE PLAINS   SUNNY     50  37  61 NE9       30.30R
ISLIP          MOSUNNY   56  44  64 NE14      30.27R
NEW YORK CITY  MOSUNNY   55  40  56 NE14      30.29R
CENTRAL PARK   SUNNY     54  37  52 NE10G17   30.32R
$$

NYZ005>009-017-018-044>046-055-056-191300-
CENTRAL


CITY           SKY/WX    TMP DP  RH WIND       PRES   REMARKS
FULTON         SUNNY     36  33  89 CALM      30.35R
SYRACUSE       MOSUNNY   40  37  89 CALM      30.35R
ROME           SUNNY     36  34  92 CALM      30.38R
ELMIRA         FOG       41  41 100 CALM      30.33R VSB 1/4
BINGHAMTON     SUNNY     39  36  89 CALM      30.30R
MONTICELLO     CLOUDY    45  43  93 E3        30.30S
$$

NYZ026>034-041>043-191300-
NORTH


CITY           SKY/WX    TMP DP  RH WIND       PRES   REMARKS
WATERTOWN      SUNNY     36  30  79 CALM      30.37R
FORT DRUM      NOT AVBL
MASSENA        SUNNY     33  32  96 CALM      30.41R
SARANAC LAKE   SUNNY     27  26  96 CALM      30.33R
PLATTSBURGH    SUNNY     37  32  82 W3        30.40R
$$

NYZ001>004-010>016-019>021-191300-
WEST


CITY           SKY/WX    TMP DP  RH WIND       PRES   REMARKS
NIAGARA FALLS  MOSUNNY   41  38  89 E5        30.31R
BUFFALO        MOSUNNY   43  39  86 E9        30.30R
DUNKIRK        CLEAR     40  39  97 CALM      30.28R
JAMESTOWN      CLOUDY    43  41  93 SE5       30.28R VSB<1/4
WELLSVILLE     CLOUDY    41  39  93 SE8       30.31R
ROCHESTER      MOSUNNY   42  37  82 SE3       30.34R
PENN YAN       PTSUNNY   41  39  93 CALM      30.34R
$$

             KEY
       WCI = WIND CHILL INDEX
       VSB = VISIBILITY
       HX  = HEAT INDEX
$$


USA.gov is the U.S. government's official web portal to all federal, state and local government web resources and services.